This demonstration page uses our WeatherBlox Daily Observations layout. Learn more.

41.55636, -103.73856

Hourly Observations for June 1, 2015

Temp ( °F °C ) Dew Point ( °F °C ) Humidity (%) Winds ( mph kmh ) Pressure ( in mb ) Visibility ( mi km ) Precip ( " mm )
12:53 am 00:53 Clear 60 15.6 54 12.2 80 80 ENE 5 7 29.9 1013 10 16.0934 0 0
1:53 am 01:53 Clear 57 13.9 54 12.2 90 90 E 5 7 29.91 1013 10 16.0934 0 0
2:53 am 02:53 Clear 58 14.4 55 12.8 90 90 ESE 8 13 29.9 1013 10 16.0934 0 0
3:53 am 03:53 Clear 57 13.9 56 13.3 96 96 E 7 11 29.9 1013 7 11.26538 0 0
4:15 am 04:15 Partly Cloudy with Mist and Fog 57 13.9 56 13.3 96 96 E 7 11 29.91 1013 6 9.65604 0 0
4:24 am 04:24 Mostly Cloudy with Mist and Fog 57 14 55 13 94 94 E 8 13 29.91 1013 5 8.0467 0 0
4:53 am 04:53 Cloudy with Mist and Fog 57 13.9 57 13.9 100 100 ESE 10 17 29.89 1012 1.75 2.816345 0 0
5:01 am 05:01 Mostly Cloudy with Fog 57 13.9 57 13.9 100 100 ESE 9 15 29.88 1012 0.5 0.80467 0 0
5:09 am 05:09 Mostly Cloudy with Fog 57 13.9 57 13.9 100 100 ESE 8 13 29.88 1012 0.25 0.402335 0 0
5:53 am 05:53 Mostly Cloudy with Fog 56 13.3 56 13.3 100 100 ESE 10 17 29.91 1013 5 8.0467 0 0
6:53 am 06:53 Mostly Cloudy with Fog 57 13.9 57 13.9 100 100 SE 7 11 29.92 1013 5 8.0467 0 0
7:22 am 07:22 Mostly Cloudy with Fog 55 13 55 13 100 100 ESE 10 17 29.94 1014 0.25 0.402335 0 0
7:53 am 07:53 Cloudy with Fog 57 13.9 57 13.9 100 100 ESE 10 17 29.93 1013 0.5 0.80467 0 0
8:11 am 08:11 Cloudy with Mist and Fog 58 14.4 58 14.4 100 100 ESE 12 19 29.91 1013 1.75 2.816345 0 0
8:16 am 08:16 Cloudy with Mist and Fog 58 14.4 57 13.9 97 97 ESE 12 19 29.91 1013 3 4.82802 0 0
8:28 am 08:28 Cloudy with Mist and Fog 59 15 57 14 94 94 ESE 13 20 29.91 1013 2 3.21868 0 0
8:42 am 08:42 Mostly Cloudy with Mist and Fog 59 15 57 14 94 94 ESE 13 20 29.91 1013 4 6.43736 0 0
8:53 am 08:53 Mostly Cloudy 60 15.6 58 14.4 93 93 ESE 12 19 29.92 1013 7 11.26538 0 0
9:01 am 09:01 Partly Cloudy 63 17.2 58 14.4 84 84 ESE 12 19 29.88 1012 9 14.48406 0 0
9:53 am 09:53 Sunny 69 20.6 58 14.4 68 68 ESE 9 15 29.9 1013 10 16.0934 0 0
10:53 am 10:53 Sunny 75 23.9 61 16.1 62 62 SE 12 19 29.88 1012 10 16.0934 0 0
11:53 am 11:53 Sunny 78 25.6 62 16.7 58 58 SE 14 22 29.88 1012 10 16.0934 0 0
12:53 pm 12:53 Sunny 83 28.3 58 14.4 43 43 SE 13 20 29.83 1010 10 16.0934 0 0
1:53 pm 13:53 Sunny 86 30 58 14.4 39 39 SE 12 19 29.8 1009 10 16.0934 0 0
2:53 pm 14:53 Sunny 85 29.4 56 13.3 37 37 SSE 13 20 29.79 1009 10 16.0934 0 0
3:53 pm 15:53 Mostly Sunny 80 26.7 57 13.9 45 45 SE 9 15 29.79 1009 10 16.0934 0 0
4:06 pm 16:06 Partly Cloudy with Nearby Thunderstorms 78 25.6 57 13.9 48 48 W 13 20 29.65 1004 10 16.0934 0 0
4:25 pm 16:25 Cloudy with Thunderstorms 75 23.9 47 8.3 37 37 WNW 17 28 29.68 1005 10 16.0934 0 0
4:53 pm 16:53 Mostly Cloudy with Thunderstorms 69 20.6 55 12.8 61 61 NNW 9 15 29.85 1011 10 16.0934 0.03 0.762
5:07 pm 17:07 Partly Cloudy with Nearby Thunderstorms 69 20.6 55 12.8 61 61 WSW 7 11 29.77 1008 10 16.0934 0 0
5:28 pm 17:28 Mostly Sunny 72 22 54 12 53 53 NE 13 20 29.71 1006 10 16.0934 0 0
5:53 pm 17:53 Sunny 77 25 52 11 42 42 NNE 8 13 29.74 1007 10 16.0934 0 0
6:00 pm 18:00 Mostly Sunny 70 21 57 14 64 64 ENE 12 19 29.74 1007 10 16.0934 0 0
6:53 pm 18:53 Sunny 71 21.7 59 15 66 66 E 7 11 29.81 1009 10 16.0934 0 0
7:53 pm 19:53 Mostly Cloudy with Nearby Thunderstorms 68 20 55 12.8 63 63 SSE 13 20 29.85 1011 10 16.0934 0 0.0254
8:08 pm 20:08 Partly Cloudy 68 20 55 13 64 64 SSW 8 13 29.77 1008 10 16.0934 0 0
8:53 pm 20:53 Clear 64 17.8 56 13.3 75 75 E 9 15 29.87 1011 10 16.0934 0 0.0254
9:53 pm 21:53 Clear 62 16.7 55 12.8 78 78 ESE 12 19 29.85 1011 10 16.0934 0 0
10:53 pm 22:53 Clear 61 16.1 54 12.2 78 78 SE 3 6 29.84 1010 10 16.0934 0 0
11:53 pm 23:53 Clear 60 15.6 55 12.8 84 84 NE 3 6 29.85 1011 10 16.0934 0 0

Powered by AerisWeather